Location: Hartford
(41.7640°N, 72.6860°W)
Time: 14:21:17
(UTC-04:00)

ISS - All Passes

Search period start: 22 June 2017 00:00
Search period end: 02 July 2017 00:00
Orbit: 401 x 408 km, 51.6° (Epoch: 23 June)

Date Brightness Start Highest point End Pass type
(mag) Time Alt. Az. Time Alt. Az. Time Alt. Az.
22 Jun - 09:45:23 10° SSW 09:48:23 34° SE 09:51:24 10° ENE daylight
22 Jun - 11:21:50 10° W 11:24:51 33° NNW 11:27:54 10° NE daylight
22 Jun - 13:00:02 10° NW 13:02:05 15° N 13:04:09 10° NNE daylight
22 Jun - 14:37:03 10° NNW 14:39:31 19° NNE 14:41:58 10° ENE daylight
22 Jun - 16:13:08 10° NW 16:16:27 72° NNE 16:19:44 10° ESE daylight
22 Jun - 17:50:49 10° W 17:52:32 14° SW 17:54:15 10° SSW daylight
23 Jun - 08:54:03 10° S 08:56:22 18° SE 08:58:42 10° E daylight
23 Jun - 10:29:22 10° WSW 10:32:35 53° NNW 10:35:50 10° NE daylight
23 Jun - 12:07:20 10° NW 12:09:37 17° NNW 12:11:56 10° NNE daylight
23 Jun - 13:44:54 10° NNW 13:47:04 16° N 13:49:14 10° NE daylight
23 Jun - 15:21:02 10° NW 15:24:12 41° NNE 15:27:22 10° E daylight
23 Jun - 16:57:47 10° WNW 17:00:33 25° SW 17:03:19 10° SSE daylight
24 Jun - 09:37:06 10° SW 09:40:23 84° SE 09:43:40 10° NE daylight
24 Jun - 11:14:35 10° WNW 11:17:12 21° NNW 11:19:49 10° NE daylight
24 Jun - 12:52:36 10° NW 12:54:35 15° N 12:56:34 10° NE daylight
24 Jun - 14:28:59 10° NW 14:31:53 27° NNE 14:34:47 10° E daylight
24 Jun - 16:05:18 10° WNW 16:08:30 47° SW 16:11:40 10° SE daylight
25 Jun - 08:45:07 10° SSW 08:48:14 43° SE 08:51:22 10° ENE daylight
25 Jun - 10:21:53 10° W 10:24:48 29° NNW 10:27:44 10° NE daylight
25 Jun - 12:00:05 10° NW 12:02:05 15° N 12:04:05 10° NE daylight
25 Jun - 13:36:54 10° NW 13:39:29 21° NNE 13:42:03 10° ENE daylight
25 Jun - 15:13:02 10° NW 15:16:20 89° NNE 15:19:38 10° SE daylight
25 Jun - 16:51:34 10° WSW 16:52:20 11° SW 16:53:06 10° SW daylight
26 Jun - 07:53:32 10° S 07:56:09 23° SE 07:58:48 10° E daylight
26 Jun - 09:29:19 10° WSW 09:32:28 44° NNW 09:35:39 10° NE daylight
26 Jun - 11:07:23 10° NW 11:09:35 16° N 11:11:46 10° NNE daylight
26 Jun - 12:44:45 10° NNW 12:47:01 17° N 12:49:16 10° NE daylight
26 Jun - 14:20:51 10° NW 14:24:04 49° NNE 14:27:18 10° ESE daylight
26 Jun - 15:57:51 10° W 16:00:20 20° SW 16:02:50 10° S daylight
27 Jun - 07:02:47 10° SSE 07:04:09 12° SE 07:05:30 10° ESE daylight
27 Jun - 08:36:55 10° WSW 08:40:12 78° NW 08:43:30 10° NE daylight
27 Jun - 10:14:36 10° WNW 10:17:05 20° NNW 10:19:36 10° NE daylight
27 Jun - 11:52:29 10° NNW 11:54:30 15° N 11:56:32 10° NE daylight
27 Jun - 13:28:45 10° NW 13:31:45 31° NNE 13:34:44 10° E daylight
27 Jun - 15:05:11 10° WNW 15:08:16 37° SW 15:11:20 10° SSE daylight
28 Jun - 07:44:47 10° SW 07:47:59 54° SE 07:51:13 10° ENE daylight
28 Jun - 09:21:50 10° W 09:24:39 25° NNW 09:27:28 10° NE daylight
28 Jun - 11:00:01 10° NW 11:01:58 15° N 11:03:55 10° NE daylight
28 Jun - 12:36:38 10° NW 12:39:20 23° NNE 12:42:01 10° ENE daylight
28 Jun - 14:12:48 10° WNW 14:16:05 74° SW 14:19:22 10° SE daylight
29 Jun - 06:53:00 10° SSW 06:55:51 28° SE 06:58:42 10° ENE daylight
29 Jun - 08:29:10 10° W 08:32:14 37° NNW 08:35:20 10° NE daylight
29 Jun - 10:07:19 10° NW 10:09:25 16° N 10:11:31 10° NNE daylight
29 Jun - 11:44:29 10° NNW 11:46:50 18° NNE 11:49:12 10° ENE daylight
29 Jun - 13:20:34 10° NW 13:23:50 60° NNE 13:27:05 10° ESE daylight
29 Jun - 14:57:52 10° W 14:59:59 16° SW 15:02:07 10° S daylight
30 Jun - 06:01:48 10° S 06:03:46 15° SE 06:05:45 10° E daylight
30 Jun - 07:36:40 10° WSW 07:39:54 63° NNW 07:43:10 10° NE daylight
30 Jun - 09:14:30 10° WNW 09:16:53 18° NNW 09:19:15 10° NNE daylight
30 Jun - 10:52:14 10° NNW 10:54:18 15° N 10:56:23 10° NE daylight
30 Jun - 12:28:23 10° NW 12:31:29 36° NNE 12:34:34 10° E daylight
30 Jun - 14:04:58 10° WNW 14:07:54 30° SW 14:10:49 10° SSE daylight
01 Jul - 06:44:23 10° SW 06:47:38 70° SE 06:50:54 10° ENE daylight
01 Jul - 08:21:41 10° WNW 08:24:22 23° NNW 08:27:05 10° NE daylight
01 Jul - 09:59:47 10° NW 10:01:44 15° N 10:03:41 10° NE daylight
01 Jul - 11:36:15 10° NW 11:39:03 25° NNE 11:41:51 10° E daylight
01 Jul - 13:12:29 10° WNW 13:15:44 58° SW 13:18:57 10° SE daylight
